Regional Weather Roundup
Issued by NWS

Home | Current Version | Previous Version | Text Only | Print | Product List | Glossary Off
Versions: 1 2 3 4 5 6 7 8 9 10 11 12 13 14 15 16 17 18 19 20 21 22 23 24 25 26 27 28 29 30 31 32 33 34 35 36 37 38 39 40 41 42 43 44 45 46 47 48 49 50

755
ASUS44 KJAN 310910
RWRMS

MISSISSIPPI HOURLY WEATHER ROUNDUP
NATIONAL WEATHER SERVICE JACKSON MS
300 AM CST SAT JAN 31 2015

NOTE: "FAIR: INDICATES FEW OR NO CLOUDS BELOW 12,000 FEET WITH NO
SIGNIFICANT WEATHER AND/OR OBSTRUCTIONS TO VISIBILITY.

MSZ001>002-007>008-010>013-018>021-025>028-034>036-311000-
NORTHWEST MISSISSIPPI

CITY           SKY/WX    TMP DP  RH WIND       PRES   REMARKS
CLARKSDALE     FAIR      34  30  86 NE6       30.38F WCI  29
CLEVELAND      FAIR      36  31  83 NE6       30.37F WCI  31
GREENWOOD      PTCLDY    30  27  88 NE3       30.37F
GREENVILLE     PTCLDY    32  27  81 NE8       30.35F WCI  25
GRENADA        FAIR      32  30  93 CALM      30.38F
OLIVE BRANCH   CLEAR     34  27  75 CALM      30.38F
OXFORD         FAIR      32  25  74 E5        30.39F WCI  27
TUNICA         CLOUDY    36  32  87 NE5       30.39F WCI  32
$$

MSZ003>006-009-014>017-022>024-029>033-037>039-311000-
NORTHEAST MISSISSIPPI

CITY           SKY/WX    TMP DP  RH WIND       PRES   REMARKS
COLUMBUS AFB   MOCLDY    29  26  88 N1        30.37F
CORINTH        FAIR      32  28  86 CALM      30.38F
GOLDN TRIANGLE CLEAR     28  25  86 CALM      30.35F
STARKVILLE     FAIR      28  27  93 CALM      30.36F
TUPELO         CLOUDY    32  25  75 NE6       30.38F WCI  26
$$

MSZ040-058-311000-
CENTRAL MISSISSIPPI

CITY           SKY/WX    TMP DP  RH WIND       PRES   REMARKS
JACKSON INTL   CLEAR     32  28  85 CALM      30.34S
JACKSON HAWKNS CLEAR     38  28  67 E5        30.34S WCI  34
MERIDIAN KEY   CLEAR     29  27  92 CALM      30.34F
MERIDIAN NAS   CLEAR     29  25  85 CALM      30.35F
RAYMOND        FAIR      32  27  80 MISG      30.34F FOG
VICKSBURG      PTCLDY    37  31  78 NE5       30.34F WCI  33
$$

MSZ059>079-311000-
SOUTH MISSISSIPPI

CITY           SKY/WX    TMP DP  RH WIND       PRES   REMARKS
BROOKHAVEN       N/A     36  32  87 E3        30.32F
HATTIESBURG    CLEAR     34  30  85 CALM      30.34F
MCCOMB         CLEAR     40  29  64 NE3       30.30F
NATCHEZ        PTCLDY    39  30  70 NE3       30.32S
PINE BELT      CLEAR     37  27  65 NE5       30.34S WCI  34
$$

MSZ080>082-311000-
COASTAL MISSISSIPPI

CITY           SKY/WX    TMP DP  RH WIND       PRES   REMARKS
BILOXI         PTCLDY    39  32  76 NE6       30.32F WCI  35
PASCAGOULA     CLEAR     33  31  92 CALM      30.32F
GULFPORT       CLEAR     40  31  70 NE7       30.32F
$$



USA.gov is the U.S. government's official web portal to all federal, state and local government web resources and services.